This is the latest recevied weather packets stored in our database for station/object 9A3XK-13. If no packets are shown the sender has not sent any weather packets the latest 1 day(s).
| Time | Temp. | Humidity | Pressure | Rain* | Wind** | Luminosity | Snow |
|---|---|---|---|---|---|---|---|
| 1777972517 | 23.89° C | 40% | 1013.6 hPa | 0 mm | 1.34 m/s, 225° | 757 W/m² | - |
| 1777972216 | 23.89° C | 39% | 1013.7 hPa | 0 mm | 1.79 m/s, 225° | 649 W/m² | - |
| 1777971917 | 23.89° C | 40% | 1013.7 hPa | 0 mm | 1.34 m/s, 180° | 700 W/m² | - |
| 1777971617 | 23.89° C | 40% | 1013.7 hPa | 0 mm | 1.79 m/s, 180° | 867 W/m² | - |
| 1777971317 | 23.89° C | 41% | 1013.7 hPa | 0 mm | 1.79 m/s, 180° | 844 W/m² | - |
| 1777971017 | 23.89° C | 41% | 1013.7 hPa | 0 mm | 1.79 m/s, 180° | 642 W/m² | - |
| 1777970716 | 23.89° C | 41% | 1013.7 hPa | 0 mm | 1.79 m/s, 225° | 775 W/m² | - |
| 1777970417 | 23.33° C | 42% | 1013.8 hPa | 0 mm | 1.79 m/s, 180° | 653 W/m² | - |
| 1777970117 | 23.33° C | 43% | 1013.8 hPa | 0 mm | 1.79 m/s, 225° | 636 W/m² | - |
| 1777969816 | 23.33° C | 42% | 1013.8 hPa | 0 mm | 2.68 m/s, 158° | 796 W/m² | - |
| 1777969517 | 23.33° C | 42% | 1013.9 hPa | 0 mm | 2.24 m/s, 203° | 784 W/m² | - |
| 1777969217 | 23.33° C | 45% | 1014 hPa | 0 mm | 2.24 m/s, 203° | 687 W/m² | - |
| 1777968916 | 22.78° C | 45% | 1014 hPa | 0 mm | 2.24 m/s, 180° | 719 W/m² | - |
| 1777968616 | 22.78° C | 44% | 1014 hPa | 0 mm | 1.79 m/s, 203° | 692 W/m² | - |
| 1777968317 | 22.22° C | 46% | 1014 hPa | 0 mm | 1.79 m/s, 180° | 681 W/m² | - |
| 1777968017 | 22.22° C | 46% | 1014 hPa | 0 mm | 2.24 m/s, 180° | 666 W/m² | - |
| 1777967716 | 21.67° C | 47% | 1014.1 hPa | 0 mm | 1.79 m/s, 203° | 643 W/m² | - |
| 1777967416 | 21.67° C | 48% | 1014.2 hPa | 0 mm | 2.24 m/s, 203° | 631 W/m² | - |
| 1777967117 | 21.67° C | 48% | 1014.2 hPa | 0 mm | 2.24 m/s, 203° | 622 W/m² | - |
| 1777966816 | 21.11° C | 51% | 1014.1 hPa | 0 mm | 1.79 m/s, 203° | 613 W/m² | - |
| 1777966517 | 21.11° C | 50% | 1014.2 hPa | 0 mm | 1.34 m/s, 203° | 561 W/m² | - |
| 1777966216 | 20.56° C | 51% | 1014.2 hPa | 0 mm | 1.34 m/s, 180° | 568 W/m² | - |
| 1777965986 | 20.56° C | 53% | 1014.3 hPa | 0 mm | 1.34 m/s, 180° | 543 W/m² | - |
| 1777965616 | 20.56° C | 54% | 1014.3 hPa | 0 mm | 1.79 m/s, 203° | 478 W/m² | - |
| 1777965316 | 20° C | 53% | 1014.3 hPa | 0 mm | 1.34 m/s, 203° | 523 W/m² | - |
* Rain latest hour (hover to see other rain measurements)
** Current wind speed in m/s (hover to see current wind gust speed)